sat.trackr.live / text

‹ back to catalog

STARLINK-35642

NORAD 66398 · 2025-257U

PAYLOAD ACTIVE UNKNOWN

§ Identity

Operator
Country
US
Launch date
2025-11-09
Launch site
AFETR
Launch vehicle
Mass (kg)
RCS (m²)

Purposes: comms

External: N2YO · Heavens-Above · Gunter

§ Orbital elements

Epoch: 2026-05-25T04:32:02.338080Z

Period
93.85 min
Inclination
53.1578°
Eccentricity
0.0001740
Mean motion
15.34413377 rev/d
Perigee alt
461.5 km
Apogee alt
463.9 km
Semi-major
6,840.8 km
B*
6.9617e-4
RAAN
221.1373°
Arg perigee
77.7491°
Mean anomaly
282.3707°
Rev number
3,145

§ Raw data

STARLINK-356421 66398U 25257U   26145.18891595  .00023228  00000+0  69617-3 0  99952 66398  53.1578 221.1373 0001740  77.7491 282.3707 15.34413377 31459

JSON: /api/v1/satellites/66398 · /tle

For live sub-satellite position, see the globe view (requires WebGL).

§ Visibility from observer

Set your observer location to see the next 7 days of passes ≥ 10°. The values pass through the URL so the page stays shareable.

No JS? Fill the form by hand. The geolocation button needs JavaScript.